Location: Bednik
(45.3500°N, 16.3833°E)
Time: 06:27:19
(UTC+00:00)

Cosmos 44 Rocket - Pass Details

Date: 08 August 2020
Orbit: 647 x 743 km, 65.1° (Epoch: 23 September)

Event Time Altitude Azimuth Distance (km) Brightness Sun altitude
Rises 22:50:14 0° 327° (NNW) 3,087 7.5 -28.8°
Reaches altitude 10° 22:52:38 10° 333° (NNW) 2,182 6.6 -28.8°
Maximum altitude 22:57:29 50° 49° (NE) 920 4.0 -28.9°
Enters shadow 22:57:30 50° 50° (NE) 920 4.0 -28.9°
